Probability
39 13 10 10 13 3 0 0 0 0 3 3 3 0 0 3 0 0 0 10 13 23 23 42 58 52 55 52 52 48 48 55 48 52 45 45 48 55 55 55 52 55 52 52 45 42 42 39 42
3 10 10 16 6 0 0 0 0 0 3 3 3 3 0 0 0 0 6 10 6 16 16 26 45 52 55 52 52 52 55 55 52 52 48 48 45 48 52 61 58 48 48 42 42 42 45 32 35
6 13 19 13 6 0 0 0 0 3 6 6 6 6 0 3 3 3 3 3 13 13 16 32 55 45 48 48 48 45 45 52 48 52 58 52 48 48 52 55 55 52 45 48 39 48 42 42 42
23 19 16 6 0 0 0 0 0 6 6 6 6 3 3 6 6 3 3 6 10 13 19 32 52 45 48 52 45 48 48 48 52 48 55 58 48 45 48 55 48 52 45 45 35 32 42 42 42
13 16 16 3 0 0 0 0 3 6 6 6 3 3 3 3 3 3 3 3 6 13 23 35 55 48 48 48 52 52 55 55 55 48 55 55 52 48 45 45 48 45 45 35 32 29 35 35 45
16 13 10 0 0 0 0 0 3 6 6 3 0 3 3 3 3 3 0 3 10 10 26 32 55 48 42 52 52 61 61 58 58 55 55 48 45 55 55 45 45 48 48 35 26 26 29 35 48
13 10 3 0 0 0 0 0 0 6 3 6 6 3 6 3 3 3 0 0 6 6 10 19 26 39 48 55 58 58 55 58 58 52 52 48 48 48 48 48 52 39 39 29 32 26 39 39 42
13 6 3 0 0 0 0 0 0 3 3 6 6 3 0 3 3 0 0 0 3 6 13 16 16 13 19 29 52 52 55 55 58 55 48 48 48 45 52 48 52 39 35 29 29 29 42 42 42
6 6 3 0 0 0 0 0 0 3 3 6 10 6 6 3 6 0 0 0 0 0 6 13 13 13 13 13 29 35 45 45 39 45 48 32 16 16 29 32 48 35 29 39 42 39 39 42 42
6 3 0 0 0 0 0 0 0 3 6 6 10 10 10 3 10 10 6 0 3 0 0 0 3 3 3 10 13 13 13 13 13 10 13 10 6 6 6 29 45 39 32 35 35 35 45 42 26
6 3 0 0 0 0 0 0 3 3 6 3 10 10 10 6 3 10 6 10 3 3 0 0 0 0 0 6 10 6 10 10 10 10 6 6 3 3 0 0 10 10 19 16 19 29 29 13 6
0 0 0 0 0 0 0 0 3 3 6 6 6 10 10 6 3 3 3 10 10 6 0 0 0 0 0 3 3 0 3 3 6 6 6 3 3 0 0 0 0 0 0 3 3 6 10 6 6
0 0 0 0 0 0 3 3 6 6 6 6 6 10 10 6 3 3 10 13 13 10 0 0 0 0 0 3 3 3 0 0 3 6 6 3 3 0 0 3 3 3 3 6 6 10 10 6 6
0 3 0 0 3 3 3 6 6 6 6 6 6 10 6 6 6 6 10 6 6 6 0 0 0 0 0 0 0 3 3 6 10 10 10 6 10 10 3 6 6 6 6 0 3 6 6 10 6
0 0 3 3 3 3 6 3 3 6 3 6 6 6 6 6 6 6 3 6 6 6 6 3 0 0 0 0 3 0 0 0 3 13 13 13 6 6 3 3 6 6 6 10 6 10 6 6 6
0 0 0 0 3 3 0 0 3 3 6 6 6 6 6 6 6 6 3 6 6 10 10 6 13 0 0 6 6 6 3 3 3 10 10 16 10 10 10 13 10 13 13 10 10 6 6 6 6
0 0 0 6 3 0 0 0 0 3 3 6 6 3 3 3 10 10 13 13 10 13 13 10 10 6 6 3 3 3 3 10 10 10 10 16 19 16 13 13 10 13 10 10 16 10 6 6 6
0 0 0 3 3 0 0 0 0 0 0 3 6 3 3 3 6 16 16 23 16 16 13 16 10 13 13 13 13 10 10 10 10 10 13 13 16 13 13 19 16 13 13 10 13 10 13 10 10
0 0 0 0 3 0 0 0 0 0 0 3 3 3 3 3 10 19 19 29 23 19 19 16 13 13 16 16 16 13 6 13 13 13 13 16 16 16 19 19 13 16 13 13 16 10 13 16 10
0 0 0 0 0 0 0 0 0 3 3 3 3 3 3 3 13 19 13 23 23 19 19 23 10 13 16 13 16 16 16 16 16 13 10 16 16 16 19 16 19 23 19 16 13 10 10 10 13
0 0 0 0 0 0 0 0 0 0 3 3 3 3 3 3 10 13 10 19 29 26 19 32 19 13 16 19 16 16 16 13 16 10 16 16 16 19 19 26 19 19 19 19 16 16 16 16 16
0 3 0 0 0 0 0 0 0 3 3 3 3 3 3 3 6 13 10 16 26 26 23 26 19 23 23 26 19 19 16 16 19 19 16 13 13 16 26 19 23 19 19 26 23 23 16 16 23
0 3 0 0 0 0 0 0 0 0 6 3 6 3 3 3 6 3 10 13 26 35 39 29 26 29 26 26 26 23 19 16 19 19 19 19 19 16 13 16 16 23 26 32 29 26 23 23 26
0 0 0 0 0 0 0 0 0 3 3 10 6 3 3 6 0 3 10 16 26 35 39 39 32 32 23 19 19 23 23 23 19 16 16 19 13 13 13 13 16 19 26 32 32 29 26 26 26
0 0 0 0 0 0 0 3 3 6 3 10 3 6 6 6 6 10 10 19 29 29 39 35 35 32 32 23 19 23 19 23 26 19 19 13 16 16 16 16 16 19 23 23 29 29 26 23 23
0 0 0 0 0 0 0 0 3 3 3 13 10 10 10 6 6 10 13 19 26 29 26 32 39 39 32 29 26 19 23 29 29 19 19 16 13 13 13 16 16 16 19 26 29 29 29 26 26
0 0 0 0 0 0 3 0 0 0 10 10 10 10 10 6 13 10 13 13 19 23 23 26 35 35 29 29 26 23 23 26 26 23 16 13 13 10 13 10 13 16 23 26 23 23 23 23 23
0 0 0 0 0 0 0 0 3 3 13 6 10 10 10 10 13 13 10 16 16 16 19 23 23 26 29 29 29 29 26 26 19 23 19 19 13 16 13 13 10 13 19 19 19 19 19 19 23
0 0 0 0 0 0 0 0 3 3 13 10 10 3 6 13 10 13 10 13 10 19 23 23 23 23 29 35 35 32 32 29 26 23 19 19 19 16 10 13 16 16 19 13 13 19 23 23 19
0 0 0 0 0 0 0 0 3 6 10 10 10 10 13 10 10 6 13 13 13 13 32 26 26 26 29 29 32 35 32 29 32 29 23 16 13 13 10 10 16 19 16 16 10 10 13 16 16
Height
5909 5908 5908 5907 5907 5905 5904 5903 5902 5901 5900 5899 5898 5896 5895 5894 5894 5894 5890 5887 5886 5884 5882 5880 5879 5877 5876 5875 5874 5874 5874 5873 5873 5874 5874 5874 5875 5875 5875 5875 5875 5875 5875 5875 5875 5875 5875 5875 5875
5910 5910 5910 5909 5907 5906 5905 5904 5903 5903 5902 5900 5899 5897 5896 5895 5894 5892 5890 5888 5886 5884 5882 5881 5879 5877 5876 5875 5874 5873 5873 5873 5872 5873 5873 5873 5874 5874 5874 5874 5874 5874 5874 5874 5874 5873 5873 5873 5873
5912 5912 5912 5910 5908 5907 5907 5905 5904 5904 5903 5901 5900 5898 5897 5896 5894 5892 5891 5889 5887 5885 5883 5881 5879 5877 5876 5875 5874 5873 5872 5872 5871 5871 5872 5872 5873 5873 5873 5873 5873 5873 5873 5873 5873 5872 5872 5872 5873
5914 5914 5913 5912 5909 5908 5908 5906 5905 5905 5904 5903 5901 5900 5898 5897 5895 5893 5891 5889 5888 5886 5884 5881 5880 5878 5876 5875 5873 5872 5871 5871 5870 5871 5871 5872 5872 5872 5872 5872 5872 5872 5872 5872 5872 5872 5872 5872 5872
5915 5914 5913 5912 5910 5910 5909 5908 5907 5906 5905 5904 5902 5901 5899 5898 5896 5894 5892 5890 5889 5887 5885 5882 5880 5879 5877 5875 5873 5872 5871 5869 5869 5870 5871 5871 5871 5871 5871 5871 5871 5871 5871 5871 5871 5871 5871 5871 5871
5916 5915 5914 5913 5912 5911 5910 5909 5909 5908 5906 5905 5903 5902 5900 5899 5897 5895 5893 5891 5890 5888 5886 5884 5881 5879 5878 5876 5874 5872 5870 5869 5868 5869 5870 5871 5871 5871 5870 5870 5870 5870 5870 5870 5870 5870 5870 5870 5871
5918 5917 5915 5914 5914 5913 5912 5911 5910 5909 5908 5906 5904 5903 5901 5900 5898 5896 5894 5893 5891 5889 5887 5885 5883 5880 5879 5877 5875 5873 5871 5869 5868 5869 5870 5870 5870 5870 5869 5869 5869 5868 5869 5870 5870 5870 5870 5870 5870
5919 5918 5917 5916 5915 5914 5913 5912 5911 5910 5909 5907 5906 5904 5902 5901 5899 5897 5896 5894 5893 5891 5889 5886 5884 5881 5880 5878 5876 5875 5872 5870 5869 5869 5870 5870 5870 5869 5869 5868 5867 5867 5868 5869 5870 5870 5870 5869 5869
5920 5920 5918 5917 5916 5915 5914 5914 5913 5911 5910 5908 5907 5905 5904 5902 5900 5899 5897 5896 5894 5892 5890 5887 5885 5883 5881 5880 5878 5877 5875 5874 5872 5871 5871 5871 5870 5869 5869 5868 5868 5867 5868 5869 5870 5870 5869 5869 5869
5921 5921 5920 5919 5918 5917 5916 5915 5914 5912 5911 5909 5908 5907 5905 5903 5902 5900 5899 5897 5895 5893 5891 5889 5887 5885 5883 5882 5880 5879 5878 5876 5875 5874 5873 5872 5871 5870 5869 5869 5868 5868 5869 5869 5870 5870 5869 5869 5868
5922 5922 5921 5919 5918 5917 5917 5916 5915 5913 5912 5911 5909 5908 5906 5904 5903 5901 5900 5898 5896 5894 5893 5891 5888 5887 5885 5883 5882 5881 5879 5878 5877 5876 5875 5874 5872 5871 5870 5870 5870 5870 5870 5870 5869 5869 5869 5869 5868
5923 5923 5922 5920 5919 5918 5918 5917 5916 5915 5914 5912 5910 5909 5907 5905 5904 5903 5901 5899 5898 5896 5894 5893 5891 5889 5887 5885 5884 5882 5881 5880 5879 5877 5876 5875 5874 5873 5872 5871 5871 5870 5870 5870 5870 5869 5869 5868 5868
5924 5923 5922 5921 5920 5919 5919 5918 5917 5915 5914 5913 5911 5910 5909 5907 5905 5903 5902 5900 5899 5898 5896 5894 5892 5891 5889 5887 5886 5884 5883 5882 5881 5879 5878 5877 5875 5874 5873 5873 5872 5872 5871 5870 5870 5869 5869 5868 5867
5924 5923 5922 5922 5921 5920 5919 5919 5919 5917 5915 5914 5913 5911 5910 5908 5906 5904 5903 5902 5900 5899 5897 5895 5893 5892 5890 5889 5887 5886 5884 5883 5882 5881 5879 5878 5876 5876 5875 5874 5873 5872 5871 5871 5870 5870 5869 5868 5867
5924 5923 5923 5922 5921 5921 5921 5920 5919 5918 5917 5915 5914 5913 5911 5909 5907 5906 5904 5903 5901 5900 5898 5897 5895 5893 5891 5890 5888 5887 5886 5884 5883 5882 5880 5879 5878 5877 5876 5875 5874 5873 5872 5871 5870 5870 5869 5868 5867
5924 5924 5923 5922 5921 5921 5922 5921 5919 5918 5917 5916 5915 5913 5912 5910 5909 5907 5906 5904 5903 5901 5899 5897 5895 5894 5892 5891 5890 5888 5887 5885 5884 5883 5881 5880 5879 5878 5877 5876 5875 5873 5872 5871 5870 5870 5869 5867 5867
5923 5923 5923 5923 5922 5921 5921 5921 5919 5918 5917 5916 5915 5914 5912 5911 5910 5908 5907 5905 5904 5902 5900 5898 5896 5895 5894 5892 5891 5889 5888 5887 5885 5884 5882 5881 5880 5878 5878 5877 5875 5874 5873 5872 5871 5870 5868 5867 5866
5923 5922 5922 5922 5921 5921 5921 5920 5919 5918 5917 5917 5916 5915 5913 5912 5911 5909 5908 5906 5905 5903 5901 5899 5898 5897 5895 5893 5892 5891 5889 5888 5886 5885 5883 5882 5881 5879 5878 5877 5875 5874 5873 5872 5871 5869 5868 5867 5866
5922 5922 5921 5921 5921 5921 5920 5919 5919 5918 5917 5917 5917 5915 5914 5913 5911 5910 5908 5907 5906 5904 5902 5900 5899 5898 5896 5895 5893 5892 5890 5889 5887 5885 5884 5883 5881 5880 5878 5877 5875 5874 5873 5871 5870 5869 5868 5866 5865
5921 5921 5921 5920 5920 5920 5920 5919 5918 5917 5917 5917 5917 5915 5914 5914 5912 5910 5909 5907 5906 5905 5903 5902 5900 5899 5897 5895 5894 5892 5891 5889 5888 5886 5884 5883 5881 5880 5878 5877 5875 5874 5872 5871 5870 5868 5867 5866 5864
5920 5920 5920 5919 5919 5919 5919 5919 5918 5917 5916 5916 5916 5915 5914 5914 5913 5911 5909 5908 5906 5905 5904 5902 5901 5899 5898 5896 5894 5893 5891 5889 5888 5886 5884 5883 5881 5879 5878 5876 5875 5873 5872 5870 5869 5867 5866 5864 5863
5918 5918 5919 5918 5918 5918 5919 5918 5917 5916 5916 5915 5915 5914 5913 5913 5912 5911 5909 5907 5906 5905 5904 5902 5901 5899 5898 5896 5895 5893 5891 5890 5888 5886 5884 5882 5880 5879 5877 5875 5874 5872 5871 5869 5867 5866 5864 5863 5861
5916 5916 5917 5917 5917 5917 5917 5917 5917 5916 5915 5914 5913 5912 5912 5912 5911 5910 5908 5907 5906 5905 5903 5902 5900 5899 5897 5896 5894 5892 5891 5889 5888 5885 5883 5881 5880 5878 5876 5874 5872 5870 5869 5867 5865 5864 5862 5860 5859
5914 5915 5915 5915 5915 5915 5916 5915 5915 5914 5914 5913 5911 5910 5910 5910 5910 5909 5907 5906 5905 5904 5902 5901 5899 5898 5897 5895 5893 5891 5890 5888 5887 5885 5883 5881 5879 5876 5874 5872 5870 5869 5867 5865 5863 5861 5859 5858 5856
5912 5914 5914 5914 5913 5913 5913 5912 5913 5912 5912 5911 5910 5909 5909 5909 5909 5908 5906 5905 5904 5903 5901 5900 5898 5897 5895 5893 5892 5890 5889 5887 5885 5883 5881 5879 5877 5875 5873 5870 5868 5866 5864 5863 5861 5859 5857 5855 5853
5910 5911 5912 5912 5911 5911 5911 5910 5912 5911 5910 5909 5909 5908 5907 5907 5907 5906 5905 5904 5902 5901 5900 5898 5897 5895 5894 5892 5890 5888 5887 5885 5883 5881 5879 5877 5874 5872 5870 5868 5866 5864 5862 5860 5858 5856 5854 5852 5850
5907 5908 5909 5909 5908 5908 5909 5909 5908 5908 5907 5907 5907 5907 5906 5906 5906 5905 5904 5902 5901 5900 5898 5896 5895 5893 5891 5890 5888 5886 5884 5882 5880 5879 5876 5874 5872 5869 5867 5865 5863 5861 5859 5857 5855 5853 5851 5848 5846
5904 5905 5906 5906 5905 5905 5905 5906 5906 5905 5905 5906 5905 5904 5904 5904 5904 5903 5901 5900 5899 5897 5896 5894 5892 5891 5889 5887 5885 5884 5882 5880 5877 5875 5873 5871 5868 5866 5864 5862 5859 5858 5856 5853 5851 5849 5846 5844 5842
5901 5902 5902 5902 5902 5902 5902 5905 5903 5902 5902 5902 5902 5903 5902 5902 5901 5900 5899 5898 5896 5894 5893 5891 5889 5888 5886 5884 5882 5880 5878 5876 5874 5871 5869 5867 5864 5862 5860 5858 5856 5854 5852 5849 5847 5845 5842 5840 5837
5897 5898 5898 5899 5899 5899 5899 5903 5900 5899 5899 5899 5899 5900 5899 5899 5899 5898 5896 5895 5893 5891 5889 5888 5886 5884 5883 5881 5879 5877 5874 5872 5870 5867 5865 5863 5860 5858 5856 5853 5851 5849 5847 5844 5842 5840 5837 5835 5832
Wind_Speed
13 13 12 12 13 14 14 14 14 14 14 13 12 11 10 11 11 10 11 11 10 10 10 9 8 7 6 5 4 2 2 2 3 4 4 4 5 6 7 7 7 7 8 8 9 9 9 9 9
13 13 13 13 14 14 15 14 14 14 14 13 13 12 11 11 11 11 11 11 11 10 10 10 9 8 6 5 5 3 2 2 2 3 4 4 4 5 6 6 6 6 7 7 8 9 8 8 8
13 13 13 13 14 14 15 15 15 15 15 14 13 13 12 11 11 11 11 11 12 11 11 10 10 9 7 6 5 5 2 1 2 2 3 3 3 3 5 6 6 6 6 6 6 6 6 8 8
13 13 13 13 15 15 14 15 15 15 14 14 14 13 13 12 12 12 12 12 12 11 12 11 10 9 8 7 6 5 4 2 1 2 2 3 3 4 4 4 4 4 4 4 5 5 6 7 7
11 12 12 13 15 15 15 15 15 14 14 14 13 13 13 13 12 12 13 12 12 12 13 12 11 11 9 7 6 6 5 3 1 1 2 2 2 2 2 3 3 3 3 4 4 4 5 5 6
11 11 12 13 14 15 15 14 14 13 14 13 13 13 13 13 12 13 13 13 13 13 13 13 13 12 11 10 10 9 8 5 3 1 1 1 1 1 2 2 2 3 3 4 3 2 3 4 5
10 10 11 12 12 13 14 13 12 13 13 13 13 13 13 13 12 13 14 14 14 14 14 14 13 13 12 11 10 9 9 7 4 3 2 1 0 0 1 2 2 3 3 2 2 2 2 2 3
9 10 11 11 11 12 13 13 13 13 13 13 13 14 13 13 13 13 14 14 14 14 14 14 13 13 12 12 11 10 9 8 7 5 4 2 2 1 1 1 1 2 2 2 2 1 1 2 2
10 10 11 11 12 12 12 12 13 13 13 13 13 13 13 13 13 13 13 14 14 14 14 14 14 13 12 10 10 10 9 10 9 6 4 4 4 3 2 1 1 1 1 1 0 0 1 1 2
10 9 11 11 11 11 11 12 12 13 13 13 12 13 13 13 13 13 13 14 14 14 14 14 14 13 12 10 10 10 9 10 9 8 7 6 4 3 2 2 2 1 1 0 0 1 1 1 2
10 9 9 11 11 10 11 11 11 13 13 13 13 13 13 13 12 12 13 13 14 13 14 14 14 13 12 11 10 10 9 9 9 8 7 6 5 5 4 3 2 1 1 1 1 2 2 2 3
8 8 8 9 10 9 10 11 11 11 13 13 13 14 13 12 12 12 12 13 13 13 13 13 14 13 12 12 11 11 11 10 10 10 9 8 7 6 5 4 3 2 2 2 2 2 2 3 3
6 6 7 7 8 8 9 10 9 10 12 13 13 13 13 13 12 12 12 12 12 13 12 13 12 12 12 12 12 12 11 10 10 10 9 9 7 7 6 6 5 5 4 4 3 3 2 3 4
5 4 6 7 8 8 8 8 8 9 11 12 12 12 12 12 12 12 12 12 12 12 13 13 13 12 11 11 11 11 11 11 10 9 9 9 8 8 7 6 6 5 5 4 4 3 3 4 4
4 4 5 6 7 8 8 7 7 8 10 11 11 11 11 12 12 12 12 13 13 13 13 13 12 12 12 11 11 11 10 10 9 9 10 9 8 8 8 7 6 6 5 5 4 3 4 4 4
2 3 4 7 6 8 9 8 7 8 9 9 10 11 11 11 12 12 12 12 12 12 12 13 13 12 13 12 12 11 10 10 9 10 10 9 9 9 8 8 7 7 6 5 4 4 4 4 4
2 4 5 5 6 8 9 9 7 7 7 8 9 11 11 11 11 11 11 12 12 12 12 12 12 12 13 12 11 11 11 11 11 11 10 10 9 9 9 8 7 7 6 5 4 4 5 5 4
3 4 4 3 5 6 8 9 7 7 6 7 8 10 11 11 11 11 11 11 12 12 12 12 11 11 11 12 11 11 11 11 11 11 10 10 9 8 8 8 8 7 6 6 5 5 5 6 5
1 0 2 3 4 5 7 7 6 6 5 6 7 9 9 10 10 10 10 11 11 11 11 11 11 11 11 11 11 11 10 10 10 10 10 9 8 8 8 8 8 8 7 7 7 7 6 6 5
2 3 2 1 2 4 5 5 5 5 4 6 7 8 8 9 9 10 10 10 10 10 10 10 10 10 10 10 10 10 10 9 9 10 9 9 9 8 8 9 8 8 8 8 7 7 7 6 6
4 4 3 2 3 5 5 4 5 5 4 5 6 6 7 7 7 8 9 9 10 9 9 9 9 10 10 10 10 11 11 11 10 10 10 10 9 9 9 9 9 9 8 8 8 8 7 7 6
5 5 3 4 4 6 5 5 5 4 4 6 7 6 5 6 6 8 9 9 9 9 9 9 9 9 9 9 9 10 10 10 10 10 10 10 9 9 9 9 9 9 9 9 9 9 8 8 8
8 8 6 5 7 7 6 7 4 4 5 7 8 7 5 5 6 7 9 10 9 9 8 9 9 9 9 9 9 9 10 10 10 10 11 10 11 10 10 10 10 10 10 10 10 10 9 9 9
9 10 9 7 7 8 7 7 6 5 6 7 8 6 4 4 5 8 9 9 9 9 9 9 9 9 9 9 9 9 9 10 11 11 11 11 11 11 11 11 11 11 11 11 12 11 10 10 11
9 11 10 9 9 7 7 8 7 7 7 6 7 5 4 5 6 8 9 9 9 9 9 9 9 9 10 10 10 10 10 11 11 12 13 13 12 12 12 12 12 12 12 12 12 12 12 13 13
10 11 11 11 11 10 8 9 9 9 7 6 6 6 5 5 5 7 8 9 8 8 9 10 10 10 10 11 11 12 11 12 12 13 14 14 14 13 13 13 13 13 13 14 13 13 14 14 15
11 11 11 12 12 11 10 10 11 9 7 7 7 8 7 6 6 7 9 9 9 10 10 11 12 12 11 11 12 13 13 14 14 14 15 15 15 15 14 15 15 15 15 15 15 15 15 16 16
12 12 13 13 14 14 12 10 11 11 9 8 8 8 7 7 7 8 9 10 10 11 12 12 13 13 13 13 14 15 16 16 16 16 16 17 17 16 16 17 17 17 17 16 17 17 17 17 17
14 14 15 14 14 13 12 11 10 11 10 9 8 8 7 7 8 9 10 11 12 12 13 13 14 14 15 15 16 16 17 17 18 18 18 19 18 18 18 19 18 18 18 18 18 19 19 19 19
15 15 15 14 14 13 14 12 11 12 11 10 9 9 9 9 10 11 12 12 13 14 14 14 14 15 15 16 17 17 18 19 19 19 20 20 20 20 21 21 21 20 20 20 20 20 20 21 21
Wind_Direction
75 70 66 60 55 49 46 46 45 41 39 40 36 31 32 30 28 22 21 23 19 17 18 17 15 13 16 25 11 345 316 279 255 244 234 226 230 236 246 247 243 241 243 245 248 251 248 247 243
68 62 59 55 52 49 46 47 46 43 40 40 37 35 37 33 31 26 23 23 22 20 21 19 14 15 13 12 6 353 322 291 257 232 226 223 228 242 241 239 238 240 242 248 251 252 246 242 237
63 61 54 50 51 49 44 41 41 42 41 40 36 34 36 36 34 30 26 24 25 24 23 21 19 22 19 12 8 3 3 290 236 224 227 228 225 238 232 234 240 247 247 252 250 247 237 236 229
61 59 54 51 49 50 43 38 36 37 40 39 37 34 35 35 34 32 31 28 26 26 25 23 22 22 22 24 24 19 17 2 239 221 217 220 230 248 241 250 251 254 254 246 242 238 236 237 230
62 54 49 45 47 44 42 38 36 35 38 38 36 35 36 35 33 33 34 33 31 31 30 27 26 27 25 21 23 20 20 14 342 207 201 217 218 243 250 250 247 247 246 241 240 236 242 249 242
64 54 47 42 42 39 37 37 39 35 34 35 34 33 36 38 36 36 38 41 38 36 35 32 33 31 32 34 33 31 34 26 28 84 128 166 158 247 250 243 243 249 246 233 232 231 239 251 248
55 48 50 46 43 43 36 37 42 39 36 35 33 34 37 39 39 40 42 43 40 39 40 39 38 35 36 38 42 41 42 43 51 80 95 124 140 301 259 260 250 245 245 241 234 228 226 253 249
56 56 47 42 38 40 37 35 38 40 37 35 34 35 36 39 41 43 42 41 41 38 39 40 41 42 42 43 47 49 53 53 58 78 75 76 64 28 26 253 234 239 242 240 234 229 269 263 250
65 56 46 38 33 38 36 34 36 41 37 36 33 33 36 39 42 42 40 39 38 37 39 41 44 46 47 47 50 53 58 57 59 69 62 49 51 49 50 60 148 174 206 222 222 206 323 258 259
69 58 46 38 33 35 33 34 36 39 38 35 33 33 36 40 41 41 41 39 39 40 41 42 45 47 50 51 51 53 58 57 53 54 51 59 59 53 58 57 84 99 63 21 342 4 9 347 312
57 53 49 40 32 34 32 34 34 33 35 36 35 31 34 39 40 42 42 39 41 42 41 43 45 47 50 52 51 51 55 56 52 52 55 59 63 61 63 63 57 71 67 108 96 41 33 9 357
57 51 46 41 36 33 29 33 32 31 31 31 31 31 34 37 38 41 42 40 40 41 41 42 43 44 47 48 48 50 52 53 50 51 53 56 59 62 70 61 53 53 59 73 68 65 49 18 16
71 53 41 36 37 33 34 36 34 28 30 30 32 34 36 38 37 39 43 43 43 41 39 38 38 41 45 45 46 48 49 52 52 50 48 47 53 57 61 59 54 53 58 61 49 32 23 10 8
70 53 43 35 30 29 33 35 36 35 32 32 34 35 38 40 42 43 44 45 43 41 39 37 34 36 43 45 47 46 49 51 52 50 48 48 52 58 58 55 49 46 51 47 33 29 12 18 14
61 49 42 31 27 25 22 20 32 34 32 31 33 34 41 44 46 47 46 45 42 41 39 35 35 38 41 45 47 46 48 51 51 51 51 48 48 50 52 49 43 37 39 35 38 27 7 7 9
64 47 34 25 29 24 16 18 23 27 30 31 31 33 39 42 42 39 41 42 41 40 38 37 40 41 41 45 48 47 45 49 50 49 48 46 45 46 46 44 39 34 33 36 33 19 4 358 359
73 53 32 40 37 29 26 17 9 23 23 24 30 33 37 39 40 37 36 38 40 39 38 41 43 41 40 43 46 45 45 44 43 43 43 44 40 37 37 35 31 30 29 28 21 13 3 0 355
69 47 32 43 21 19 13 10 7 9 16 20 26 29 34 38 36 36 36 38 38 37 38 41 41 39 40 43 45 44 43 41 38 37 38 37 36 32 27 25 24 22 20 15 12 7 359 355 348
162 54 357 26 356 3 360 359 359 359 13 18 14 23 33 36 37 36 35 35 35 35 36 37 37 36 39 39 37 36 35 33 31 31 30 27 23 22 19 17 15 12 8 8 7 2 357 352 341
236 260 290 327 322 329 338 341 336 334 350 358 4 9 22 32 36 34 34 33 31 31 34 36 35 35 34 34 34 31 29 25 22 21 17 14 12 10 11 7 4 0 358 356 357 353 348 345 342
251 273 278 298 279 291 314 317 320 318 334 352 357 4 12 19 26 28 28 27 25 26 26 27 26 25 25 25 25 25 22 18 16 14 11 8 5 2 357 356 353 351 348 345 343 343 337 334 331
237 256 272 289 286 287 285 296 317 306 326 337 347 348 360 7 17 22 21 19 16 15 15 14 13 12 14 15 14 13 13 10 7 3 1 356 353 350 348 345 344 340 336 334 335 333 332 333 330
230 238 253 267 277 276 285 281 287 306 311 325 328 326 344 3 9 13 16 16 9 4 4 4 3 1 2 5 5 3 1 359 358 355 354 352 348 345 344 341 339 334 330 328 327 324 321 323 325
233 235 246 249 266 270 276 288 302 310 320 326 323 319 327 355 354 358 2 4 1 356 354 354 353 351 350 352 352 351 349 348 348 346 345 345 343 341 339 338 335 332 326 323 321 317 313 313 315
236 235 239 241 255 269 274 287 307 316 314 321 329 328 313 331 344 346 352 356 357 352 347 345 345 342 340 342 342 340 340 339 338 336 334 333 332 333 331 331 328 324 320 319 318 317 313 311 310
237 238 242 247 251 258 265 279 294 303 303 311 330 339 320 328 341 341 344 347 348 343 338 337 336 334 331 331 331 331 332 331 330 328 325 324 324 322 325 326 323 319 314 312 311 311 312 308 306
232 235 240 248 250 254 262 279 284 291 297 308 325 333 323 319 332 335 335 337 335 330 328 328 326 325 323 322 320 321 322 321 321 321 319 318 317 318 320 319 315 312 310 309 307 307 307 308 308
236 235 237 243 251 254 261 274 284 281 279 293 306 314 312 307 315 322 323 325 325 323 322 322 320 319 318 318 317 316 315 318 318 317 314 314 312 312 314 313 311 309 308 308 307 305 303 304 306
238 239 240 243 250 259 264 274 284 282 275 277 296 310 311 300 303 307 315 320 319 319 318 319 318 317 315 314 313 313 313 314 313 313 314 313 312 310 310 309 308 308 307 307 307 306 304 303 303
237 240 240 243 246 252 262 270 282 283 274 275 291 296 302 292 296 305 309 312 314 315 316 315 314 313 312 309 308 308 309 311 311 311 311 310 307 306 306 308 309 308 307 305 305 304 303 302 300